Tillbaka till svenska Fidonet
English   Information   Debug  
FILM   0/18
FNEWS_PUBLISH   4983
FN_SYSOP   42232
FN_SYSOP_OLD1   71952
FTP_FIDO   0/2
FTSC_PUBLIC   0/13976
FUNNY   0/4886
GENEALOGY.EUR   0/71
GET_INFO   105
GOLDED   137/408
HAM   5122/16713
HOLYSMOKE   0/6791
HOT_SITES   0/1
HTMLEDIT   0/71
HUB203   466
HUB_100   264
HUB_400   39
HUMOR   0/29
IC   1506/2851
INTERNET   0/424
INTERUSER   0/3
IP_CONNECT   719
JAMNNTPD   0/233
JAMTLAND   0/47
KATTY_KORNER   0/41
LAN   0/16
LINUX-USER   0/19
LINUXHELP   0/1155
LINUX   0/22382
LINUX_BBS   0/957
mail   18.68
mail_fore_ok   249
MENSA   0/341
MODERATOR   0/102
MONTE   0/992
MOSCOW_OKLAHOMA   0/1245
MUFFIN   0/783
MUSIC   0/321
N203_STAT   938
N203_SYSCHAT   313
NET203   321
NET204   69
NET_DEV   0/10
NORD.ADMIN   0/101
NORD.CHAT   0/2572
NORD.FIDONET   189
NORD.HARDWARE   0/28
NORD.KULTUR   0/114
NORD.PROG   0/32
NORD.SOFTWARE   0/88
NORD.TEKNIK   0/58
NORD   0/453
OCCULT_CHAT   0/93
OS2BBS   0/787
OS2DOSBBS   0/580
OS2HW   0/42
OS2INET   0/37
OS2LAN   0/134
OS2PROG   0/36
OS2REXX   0/113
OS2USER-L   207
OS2   0/4831
OSDEBATE   0/18996
PASCAL   0/490
PERL   0/457
PHP   0/45
POINTS   0/405
POLITICS   0/29554
POL_INC   0/14731
PSION   103
R20_ADMIN   1133
R20_AMATORRADIO   0/2
R20_BEST_OF_FIDONET   16
R20_CHAT   0/897
R20_DEPP   0/3
R20_DEV   400
R20_ECHO2   1889
R20_ECHOPRES   0/35
R20_ESTAT   0/719
R20_FIDONETPROG...
...RAM.MYPOINT
  0/2
R20_FIDONETPROGRAM   0/22
R20_FIDONET   0/248
R20_FILEFIND   0/24
R20_FILEFOUND   0/22
R20_HIFI   0/3
R20_INFO2   3781
R20_INTERNET   0/12940
R20_INTRESSE   0/60
R20_INTR_KOM   0/99
R20_KANDIDAT.CHAT   42
R20_KANDIDAT   28
R20_KOM_DEV   112
R20_KONTROLL   0/13360
R20_KORSET   0/18
R20_LOKALTRAFIK   0/24
R20_MODERATOR   0/1852
R20_NC   76
R20_NET200   245
R20_NETWORK.OTH...
...ERNETS
  0/13
R20_OPERATIVSYS...
...TEM.LINUX
  0/44
R20_PROGRAMVAROR   0/1
R20_REC2NEC   534
R20_SFOSM   0/341
R20_SF   0/108
R20_SPRAK.ENGLISH   0/1
R20_SQUISH   107
R20_TEST   2
R20_WORST_OF_FIDONET   20
RAR   0/9
RA_MULTI   106
RA_UTIL   0/162
REGCON.EUR   0/2069
REGCON   0/13
SCIENCE   0/1206
SF   0/239
SHAREWARE_SUPPORT   0/5146
SHAREWRE   0/14
SIMPSONS   0/169
STATS_OLD1   0/2539.065
STATS_OLD2   0/2530
STATS_OLD3   0/2395.095
STATS_OLD4   0/1692.25
SURVIVOR   0/495
SYSOPS_CORNER   0/3
SYSOP   0/84
TAGLINES   0/112
TEAMOS2   0/4530
TECH   0/2617
TEST.444   0/105
TRAPDOOR   0/19
TREK   0/755
TUB   0/290
UFO   33/40
UNIX   0/1316
USA_EURLINK   0/102
USR_MODEMS   0/1
VATICAN   0/2740
VIETNAM_VETS   0/14
VIRUS   0/378
VIRUS_INFO   0/201
VISUAL_BASIC   0/473
WHITEHOUSE   0/5187
WIN2000   0/101
WIN32   0/30
WIN95   526/4291
WIN95_OLD1   0/70272
WINDOWS   1281/1517
WWB_SYSOP   0/419
WWB_TECH   502/810
ZCC-PUBLIC   0/1
ZEC   4

 
4DOS   0/134
ABORTION   0/7
ALASKA_CHAT   0/506
ALLFIX_FILE   0/1313
ALLFIX_FILE_OLD1   0/7997
ALT_DOS   0/152
AMATEUR_RADIO   0/1039
AMIGASALE   0/14
AMIGA   0/331
AMIGA_INT   0/1
AMIGA_PROG   0/20
AMIGA_SYSOP   0/26
ANIME   0/15
ARGUS   0/924
ASCII_ART   0/340
ASIAN_LINK   0/651
ASTRONOMY   0/417
AUDIO   0/92
AUTOMOBILE_RACING   0/105
BABYLON5   0/17862
BAG   135
BATPOWER   0/361
BBBS.ENGLISH   0/382
BBSLAW   0/109
BBS_ADS   0/5290
BBS_INTERNET   0/507
BIBLE   337/3563
BINKD   0/1119
BINKLEY   0/215
BLUEWAVE   0/2173
CABLE_MODEMS   0/25
CBM   0/46
CDRECORD   0/66
CDROM   0/20
CLASSIC_COMPUTER   0/378
COMICS   0/15
CONSPRCY   0/899
COOKING   42003
COOKING_OLD1   0/24719
COOKING_OLD2   0/40862
COOKING_OLD3   0/37489
COOKING_OLD4   29811/35496
COOKING_OLD5   9370
C_ECHO   0/189
C_PLUSPLUS   0/31
DIRTY_DOZEN   0/201
DOORGAMES   0/2333
DOS_INTERNET   0/196
duplikat   6102
ECHOLIST   14572/18295
EC_SUPPORT   290/318
ELECTRONICS   0/359
ELEKTRONIK.GER   1534
ENET.LINGUISTIC   0/13
ENET.POLITICS   0/4
ENET.SOFT   0/11701
ENET.SYSOP   34332
ENET.TALKS   0/32
ENGLISH_TUTOR   0/2000
EVOLUTION   0/1335
FDECHO   0/217
FDN_ANNOUNCE   5768/7068
FIDONEWS   25122
FIDONEWS_OLD1   0/49742
FIDONEWS_OLD2   0/35949
FIDONEWS_OLD3   0/30874
FIDONEWS_OLD4   0/37224
FIDO_SYSOP   12973
FIDO_UTIL   0/180
FILEFIND   0/209
FILEGATE   0/212
Möte HAM, 16713 texter
 lista första sista föregående nästa
Text 5224, 979 rader
Skriven 2012-04-27 00:01:36 av Amsat List (1:323/120.0)
Ärende: [keps] orb12117.amsa
============================
[keps] orb12117.amsa

Sender: keps-bounces@amsat.org
Return-Path: <keps-bounces@amsat.org>
X-Rcpt: craig.healy@chowda.com
X-UIDL: 1335497503.2634

SB KEPS @ AMSAT  $ORB12117.O
Orbital Elements  12117.OSCAR

HR AMSAT ORBITAL ELEMENTS FOR OSCAR SATELLITES
FROM WA5QGD FORT WORTH,TX April 26, 2012
Send SUBSCRIBE KEPS/UNSUBSCRIBE KEPS to majordomo@amsat.org only
BID: ORB12117.O
TO ALL RADIO AMATEURS BT

Satellite: AO-07
Catalog number: 07530
Epoch time:      12116.63330756
Element set:     365
Inclination:      101.4016 deg
RA of node:       115.8750 deg
Eccentricity:    0.0012042
Arg of perigee:   026.8081 deg
Mean anomaly:     333.3607 deg
Mean motion:   12.53588925 rev/day
Decay rate:       -2.7e-07 rev/day^2
Epoch rev:           71346
Checksum:              269

Satellite: FO-29
Catalog number: 24278
Epoch time:      12116.90282700
Element set:     826
Inclination:      098.5816 deg
RA of node:       224.4066 deg
Eccentricity:    0.0350742
Arg of perigee:   164.5498 deg
Mean anomaly:     196.6683 deg
Mean motion:   13.52981591 rev/day
Decay rate:       -1.6e-07 rev/day^2
Epoch rev:           77488
Checksum:              344

Satellite: SO-33
Catalog number: 25509
Epoch time:      12116.72585965
Element set:    0217
Inclination:      031.4313 deg
RA of node:       270.5612 deg
Eccentricity:    0.0352104
Arg of perigee:   104.3041 deg
Mean anomaly:     259.6945 deg
Mean motion:   14.28711113 rev/day
Decay rate:      1.000e-05 rev/day^2
Epoch rev:           70514
Checksum:              257

Satellite: RS-22
Catalog number: 27939
Epoch time:      12117.53237128
Element set:     299
Inclination:      097.8159 deg
RA of node:       320.9897 deg
Eccentricity:    0.0014611
Arg of perigee:   070.2422 deg
Mean anomaly:     290.0379 deg
Mean motion:   14.63984371 rev/day
Decay rate:       9.61e-06 rev/day^2
Epoch rev:           45832
Checksum:              328

Satellite: VO-52
Catalog number: 28650
Epoch time:      12116.69337969
Element set:    0086
Inclination:      097.6014 deg
RA of node:       150.2079 deg
Eccentricity:    0.0025817
Arg of perigee:   211.3009 deg
Mean anomaly:     148.6666 deg
Mean motion:   14.82845489 rev/day
Decay rate:      1.614e-05 rev/day^2
Epoch rev:           37719
Checksum:              333

Satellite: HO-68
Catalog number: 36122
Epoch time:      12117.60641447
Element set:     410
Inclination:      100.3657 deg
RA of node:       177.9830 deg
Eccentricity:    0.0007199
Arg of perigee:   225.2134 deg
Mean anomaly:     134.8403 deg
Mean motion:   13.16294719 rev/day
Decay rate:       -4.4e-07 rev/day^2
Epoch rev:           11360
Checksum:              276

/EX
SB KEPS @ AMSAT  $ORB12117.D
Orbital Elements  12117.MICROS

HR AMSAT ORBITAL ELEMENTS FOR THE MICROSATS
FROM WA5QGD FORT WORTH,TX April 26, 2012
Send SUBSCRIBE KEPS/UNSUBSCRIBE KEPS to majordomo@amsat.org only
BID: ORB12117.D
TO ALL RADIO AMATEURS BT

Satellite: UO-11
Catalog number: 14781
Epoch time:      12116.73937543
Element set:    0868
Inclination:      097.9564 deg
RA of node:       176.7074 deg
Eccentricity:    0.0008615
Arg of perigee:   196.0341 deg
Mean anomaly:     164.0599 deg
Mean motion:   14.80396535 rev/day
Decay rate:       9.69e-06 rev/day^2
Epoch rev:           51217
Checksum:              341

Satellite: AO-16
Catalog number: 20439
Epoch time:      12117.45344259
Element set:     451
Inclination:      098.4262 deg
RA of node:       062.2862 deg
Eccentricity:    0.0010580
Arg of perigee:   317.8849 deg
Mean anomaly:     042.1520 deg
Mean motion:   14.32041532 rev/day
Decay rate:       1.89e-06 rev/day^2
Epoch rev:           16259
Checksum:              284

Satellite: LO-19
Catalog number: 20442
Epoch time:      12116.92542465
Element set:    0378
Inclination:      098.3918 deg
RA of node:       064.9638 deg
Eccentricity:    0.0011178
Arg of perigee:   309.5087 deg
Mean anomaly:     050.5101 deg
Mean motion:   14.32260851 rev/day
Decay rate:       2.26e-06 rev/day^2
Epoch rev:           16270
Checksum:              292

Satellite: AO-27
Catalog number: 22825
Epoch time:      12116.74854087
Element set:    0088
Inclination:      098.5712 deg
RA of node:       060.3906 deg
Eccentricity:    0.0009294
Arg of perigee:   075.0086 deg
Mean anomaly:     285.2136 deg
Mean motion:   14.29450013 rev/day
Decay rate:       1.60e-06 rev/day^2
Epoch rev:           96898
Checksum:              317

Satellite: IO-26
Catalog number: 22826
Epoch time:      12117.52926530
Element set:     838
Inclination:      098.5656 deg
RA of node:       061.5419 deg
Eccentricity:    0.0009930
Arg of perigee:   067.0274 deg
Mean anomaly:     293.1955 deg
Mean motion:   14.29722807 rev/day
Decay rate:       1.60e-06 rev/day^2
Epoch rev:           96922
Checksum:              324

Satellite: GO-32
Catalog number: 25397
Epoch time:      12117.51574373
Element set:     760
Inclination:      098.3585 deg
RA of node:       098.7798 deg
Eccentricity:    0.0002242
Arg of perigee:   081.2523 deg
Mean anomaly:     278.8914 deg
Mean motion:   14.23269297 rev/day
Decay rate:       -4.4e-07 rev/day^2
Epoch rev:           71667
Checksum:              339

Satellite: NO-44
Catalog number: 26931
Epoch time:      12116.71778447
Element set:      25
Inclination:      067.0531 deg
RA of node:       255.5680 deg
Eccentricity:    0.0007267
Arg of perigee:   271.5718 deg
Mean anomaly:     088.4518 deg
Mean motion:   14.29785751 rev/day
Decay rate:        5.7e-07 rev/day^2
Epoch rev:           55174
Checksum:              326

